| time (UTC) | temp F | wind direction | speed knots | gust knots | rain 1hr in | rain 24hr in | rain mn in | humidity % | barometer mb |
| 20260506033656 | 78 | 146 | 0.9 | 4.3 | 0.00 | 0.00 | 0.00 | 93 | 1009.1 |
| 20260506033150 | 78 | 132 | 1.7 | 8.7 | 0.00 | 0.00 | 0.00 | 93 | 1008.8 |
| 20260506032644 | 78 | 152 | 1.7 | 8.7 | 0.00 | 0.00 | 0.00 | 93 | 1008.6 |
| 20260506032138 | 78 | 130 | 1.7 | 6.1 | 0.00 | 0.00 | 0.00 | 93 | 1008.5 |
| 20260506031631 | 78 | 148 | 1.7 | 7.8 | 0.00 | 0.00 | 0.00 | 93 | 1008.4 |
| 20260506031126 | 78 | 148 | 1.7 | 7.8 | 0.00 | 0.00 | 0.00 | 93 | 1008.4 |
| 20260506030619 | 78 | 145 | 2.6 | 8.7 | 0.00 | 0.00 | 0.00 | 93 | 1008.4 |
| 20260506030114 | 78 | 146 | 2.6 | 8.7 | 0.00 | 0.00 | 0.00 | 92 | 1008.2 |
| 20260506025607 | 78 | 148 | 1.7 | 7.0 | 0.00 | 0.00 | 0.00 | 92 | 1008.3 |
| 20260506025102 | 78 | 115 | 1.7 | 7.0 | 0.00 | 0.00 | 0.00 | 92 | 1008.2 |
| 20260506024555 | 78 | 167 | 1.7 | 8.7 | 0.00 | 0.00 | 0.00 | 92 | 1008.2 |
| 20260506024322 | 78 | 177 | 1.7 | 8.7 | 0.00 | 0.00 | 0.00 | 92 | 1008.2 |
| 20260506023544 | 78 | 191 | 2.6 | 8.7 | 0.00 | 0.00 | 0.00 | 91 | 1008.0 |
| 20260506023037 | 78 | 148 | 2.6 | 8.7 | 0.00 | 0.00 | 0.00 | 91 | 1008.1 |
| 20260506022531 | 78 | 138 | 2.6 | 9.6 | 0.00 | 0.00 | 0.00 | 91 | 1007.9 |
| 20260506022025 | 78 | 140 | 1.7 | 9.6 | 0.00 | 0.00 | 0.00 | 91 | 1007.9 |
| 20260506021524 | 78 | 115 | 1.7 | 8.7 | 0.00 | 0.00 | 0.00 | 91 | 1007.8 |
| 20260506021024 | 78 | 140 | 1.7 | 8.7 | 0.00 | 0.00 | 0.00 | 91 | 1007.8 |
| 20260506020524 | 78 | 146 | 1.7 | 6.1 | 0.00 | 0.00 | 0.00 | 90 | 1007.7 |
| 20260506020254 | 79 | 94 | 0.9 | 6.1 | 0.00 | 0.00 | 0.00 | 90 | 1007.7 |
| 20260506015521 | 79 | 148 | 1.7 | 6.1 | 0.00 | 0.00 | 0.00 | 90 | 1007.7 |
| 20260506015020 | 79 | 154 | 1.7 | 6.1 | 0.00 | 0.00 | 0.00 | 90 | 1007.7 |
| 20260506014520 | 79 | 161 | 1.7 | 7.0 | 0.00 | 0.00 | 0.00 | 90 | 1007.5 |
| 20260506014019 | 79 | 142 | 1.7 | 7.0 | 0.00 | 0.00 | 0.00 | 89 | 1007.4 |
| 20260506013520 | 79 | 173 | 1.7 | 6.1 | 0.00 | 0.00 | 0.00 | 89 | 1007.4 |
| 20260506013018 | 79 | 142 | 0.9 | 6.1 | 0.00 | 0.00 | 0.00 | 89 | 1007.4 |
| 20260506012519 | 79 | 165 | 1.7 | 7.0 | 0.00 | 0.00 | 0.00 | 89 | 1007.5 |
| 20260506012018 | 79 | 147 | 1.7 | 7.0 | 0.00 | 0.00 | 0.00 | 89 | 1007.6 |
| 20260506011516 | 79 | 159 | 2.6 | 10.4 | 0.00 | 0.00 | 0.00 | 88 | 1007.1 |
| 20260506011013 | 79 | 130 | 2.6 | 10.4 | 0.00 | 0.00 | 0.00 | 88 | 1007.0 |
| 20260506010745 | 79 | 156 | 1.7 | 7.8 | 0.00 | 0.00 | 0.00 | 88 | 1007.0 |
| 20260506010014 | 79 | 186 | 2.6 | 7.8 | 0.00 | 0.00 | 0.00 | 88 | 1007.0 |
| 20260506005745 | 79 | 144 | 2.6 | 9.6 | 0.00 | 0.00 | 0.00 | 88 | 1006.9 |
| 20260506005008 | 80 | 159 | 3.5 | 9.6 | 0.00 | 0.00 | 0.00 | 87 | 1006.9 |
| 20260506004502 | 80 | 150 | 1.7 | 7.8 | 0.00 | 0.00 | 0.00 | 87 | 1006.9 |
| 20260506003956 | 80 | 141 | 0.9 | 7.0 | 0.00 | 0.00 | 0.00 | 87 | 1006.9 |
| 20260506003453 | 80 | 148 | 1.7 | 7.0 | 0.00 | 0.00 | 0.00 | 87 | 1006.9 |
| 20260506002953 | 80 | 136 | 0.9 | 7.0 | 0.00 | 0.00 | 0.00 | 87 | 1006.8 |
| 20260506002452 | 80 | 126 | 1.7 | 7.8 | 0.00 | 0.00 | 0.00 | 87 | 1006.7 |
| 20260506002226 | 80 | 155 | 2.6 | 9.6 | 0.00 | 0.00 | 0.00 | 87 | 1006.7 |
| 20260506001453 | 80 | 140 | 2.6 | 9.6 | 0.00 | 0.00 | 0.00 | 86 | 1006.7 |
| 20260506000953 | 80 | 179 | 2.6 | 9.6 | 0.00 | 0.00 | 0.00 | 86 | 1006.8 |
| 20260506000453 | 80 | 161 | 2.6 | 10.4 | 0.00 | 0.00 | 0.00 | 86 | 1006.8 |
| 20260505235954 | 80 | 134 | 2.6 | 10.4 | 0.00 | 0.00 | 0.00 | 86 | 1006.9 |
| 20260505235726 | 80 | 153 | 2.6 | 10.4 | 0.00 | 0.00 | 0.00 | 87 | 1006.8 |
| 20260505234954 | 80 | 138 | 1.7 | 8.7 | 0.00 | 0.00 | 0.00 | 86 | 1006.7 |
| 20260505234455 | 81 | 199 | 2.6 | 10.4 | 0.00 | 0.00 | 0.00 | 86 | 1006.8 |
| 20260505233950 | 81 | 133 | 2.6 | 10.4 | 0.00 | 0.00 | 0.00 | 86 | 1006.7 |
| 20260505233450 | 81 | 134 | 2.6 | 11.3 | 0.00 | 0.00 | 0.00 | 86 | 1006.7 |
| 20260505232950 | 81 | 148 | 2.6 | 11.3 | 0.00 | 0.00 | 0.00 | 85 | 1006.7 |
| 20260505232449 | 81 | 160 | 2.6 | 9.6 | 0.00 | 0.00 | 0.00 | 85 | 1006.7 |
| 20260505231948 | 81 | 171 | 2.6 | 8.7 | 0.00 | 0.00 | 0.00 | 84 | 1006.8 |
| 20260505231449 | 82 | 191 | 1.7 | 7.8 | 0.00 | 0.00 | 0.00 | 85 | 1006.7 |
| 20260505230948 | 82 | 154 | 1.7 | 7.8 | 0.00 | 0.00 | 0.00 | 85 | 1006.6 |
| 20260505230449 | 82 | 179 | 2.6 | 9.6 | 0.00 | 0.00 | 0.00 | 86 | 1006.6 |
| 20260505225950 | 82 | 178 | 2.6 | 9.6 | 0.00 | 0.00 | 0.00 | 85 | 1006.7 |
| 20260505225445 | 82 | 155 | 1.7 | 7.8 | 0.00 | 0.00 | 0.00 | 85 | 1006.8 |
| 20260505224945 | 83 | 132 | 1.7 | 7.8 | 0.00 | 0.00 | 0.00 | 84 | 1006.7 |
| 20260505224718 | 83 | 150 | 1.7 | 8.7 | 0.00 | 0.00 | 0.00 | 84 | 1006.7 |
| 20260505223944 | 83 | 161 | 2.6 | 10.4 | 0.00 | 0.00 | 0.00 | 84 | 1006.7 |
| 20260505223445 | 83 | 136 | 2.6 | 10.4 | 0.00 | 0.00 | 0.00 | 82 | 1006.8 |
| 20260505222946 | 83 | 194 | 1.7 | 7.0 | 0.00 | 0.00 | 0.00 | 82 | 1006.7 |
| 20260505222444 | 83 | 148 | 1.7 | 7.0 | 0.00 | 0.00 | 0.00 | 82 | 1006.7 |
| 20260505221945 | 83 | 213 | 2.6 | 9.6 | 0.00 | 0.00 | 0.00 | 82 | 1006.9 |
| 20260505221446 | 83 | 159 | 2.6 | 11.3 | 0.00 | 0.00 | 0.00 | 82 | 1006.9 |
| 20260505220942 | 83 | 132 | 3.5 | 11.3 | 0.00 | 0.00 | 0.00 | 83 | 1006.9 |
| 20260505220442 | 83 | 219 | 2.6 | 13.0 | 0.00 | 0.00 | 0.00 | 83 | 1006.8 |
| 20260505215942 | 83 | 130 | 1.7 | 13.0 | 0.00 | 0.00 | 0.00 | 82 | 1006.9 |
| 20260505215440 | 83 | 215 | 1.7 | 6.1 | 0.00 | 0.00 | 0.00 | 83 | 1006.9 |
| 20260505214940 | 83 | 163 | 2.6 | 10.4 | 0.00 | 0.00 | 0.00 | 83 | 1007.1 |
| 20260505214440 | 83 | 150 | 2.6 | 10.4 | 0.00 | 0.00 | 0.00 | 83 | 1007.1 |
| 20260505213940 | 83 | 159 | 2.6 | 8.7 | 0.00 | 0.00 | 0.00 | 83 | 1007.2 |
| 20260505213713 | 83 | 163 | 2.6 | 8.7 | 0.00 | 0.00 | 0.00 | 82 | 1007.1 |
| 20260505212942 | 83 | 148 | 2.6 | 12.2 | 0.00 | 0.00 | 0.00 | 82 | 1007.2 |
| 20260505212713 | 83 | 194 | 2.6 | 12.2 | 0.00 | 0.00 | 0.00 | 83 | 1007.2 |
| 20260505211940 | 83 | 140 | 1.7 | 10.4 | 0.00 | 0.00 | 0.00 | 82 | 1007.3 |
| 20260505211440 | 83 | 197 | 1.7 | 10.4 | 0.00 | 0.00 | 0.00 | 83 | 1007.3 |
| 20260505210940 | 83 | 171 | 1.7 | 8.7 | 0.00 | 0.00 | 0.00 | 83 | 1007.4 |
| 20260505210712 | 83 | 197 | 2.6 | 8.7 | 0.00 | 0.00 | 0.00 | 83 | 1007.5 |
| 20260505210210 | 83 | 159 | 2.6 | 10.4 | 0.00 | 0.00 | 0.00 | 83 | 1007.5 |
| 20260505205438 | 83 | 168 | 2.6 | 10.4 | 0.00 | 0.00 | 0.00 | 83 | 1007.6 |
| 20260505204938 | 83 | 162 | 1.7 | 10.4 | 0.00 | 0.00 | 0.00 | 83 | 1007.6 |
| 20260505204437 | 83 | 180 | 1.7 | 7.0 | 0.00 | 0.00 | 0.00 | 83 | 1007.7 |
| 20260505203937 | 83 | 202 | 1.7 | 7.0 | 0.00 | 0.00 | 0.00 | 82 | 1007.9 |
| 20260505203436 | 83 | 201 | 1.7 | 10.4 | 0.00 | 0.00 | 0.00 | 82 | 1007.9 |
| 20260505202936 | 84 | 178 | 1.7 | 10.4 | 0.00 | 0.00 | 0.00 | 81 | 1007.8 |
| 20260505202438 | 84 | 175 | 1.7 | 8.7 | 0.00 | 0.00 | 0.00 | 82 | 1007.9 |
| 20260505202210 | 84 | 190 | 1.7 | 7.8 | 0.00 | 0.00 | 0.00 | 82 | 1008.1 |
| 20260505201430 | 84 | 211 | 1.7 | 7.8 | 0.00 | 0.00 | 0.00 | 83 | 1008.0 |
| 20260505200923 | 84 | 190 | 1.7 | 7.8 | 0.00 | 0.00 | 0.00 | 83 | 1008.1 |
| 20260505200417 | 84 | 195 | 2.6 | 10.4 | 0.00 | 0.00 | 0.00 | 83 | 1008.2 |
| 20260505195911 | 84 | 179 | 2.6 | 10.4 | 0.00 | 0.00 | 0.00 | 82 | 1008.3 |
| 20260505195636 | 84 | 184 | 1.7 | 8.7 | 0.00 | 0.00 | 0.00 | 83 | 1008.3 |
| 20260505194859 | 83 | 213 | 2.6 | 9.6 | 0.00 | 0.00 | 0.00 | 84 | 1008.4 |
| 20260505194357 | 83 | 187 | 2.6 | 9.6 | 0.00 | 0.00 | 0.00 | 85 | 1008.6 |
| 20260505194352 | 83 | 103 | 2.6 | 9.6 | 0.00 | 0.00 | 0.00 | 84 | 1008.6 |
| 20260505193350 | 82 | 168 | 1.7 | 7.0 | 0.00 | 0.00 | 0.00 | 85 | 1008.5 |
| 20260505192849 | 82 | 159 | 1.7 | 7.8 | 0.00 | 0.00 | 0.00 | 86 | 1008.6 |
| 20260505192349 | 82 | 209 | 1.7 | 9.6 | 0.00 | 0.00 | 0.00 | 85 | 1008.7 |
| 20260505191849 | 82 | 139 | 1.7 | 9.6 | 0.00 | 0.00 | 0.00 | 84 | 1008.6 |
| 20260505191348 | 83 | 155 | 1.7 | 8.7 | 0.00 | 0.00 | 0.00 | 84 | 1008.7 |
| 20260505190847 | 82 | 152 | 1.7 | 8.7 | 0.00 | 0.00 | 0.00 | 84 | 1008.8 |
| 20260505190346 | 82 | 155 | 1.7 | 6.1 | 0.00 | 0.00 | 0.00 | 84 | 1008.8 |
| 20260505185846 | 82 | 189 | 2.6 | 8.7 | 0.00 | 0.00 | 0.00 | 83 | 1008.7 |
| 20260505185344 | 82 | 203 | 2.6 | 8.7 | 0.00 | 0.00 | 0.00 | 84 | 1008.7 |
| 20260505184844 | 82 | 217 | 1.7 | 8.7 | 0.00 | 0.00 | 0.00 | 84 | 1008.7 |
| 20260505184344 | 82 | 204 | 1.7 | 11.3 | 0.00 | 0.00 | 0.00 | 85 | 1008.9 |
| 20260505183844 | 82 | 215 | 2.6 | 11.3 | 0.00 | 0.00 | 0.00 | 85 | 1008.9 |
| 20260505183345 | 82 | 170 | 2.6 | 7.0 | 0.00 | 0.00 | 0.00 | 85 | 1009.0 |
| 20260505182846 | 81 | 171 | 2.6 | 7.0 | 0.00 | 0.00 | 0.00 | 86 | 1009.0 |
| 20260505182344 | 81 | 201 | 1.7 | 6.1 | 0.00 | 0.00 | 0.00 | 86 | 1008.9 |
| 20260505181843 | 81 | 175 | 1.7 | 5.2 | 0.00 | 0.00 | 0.00 | 86 | 1009.0 |
| 20260505181344 | 81 | 161 | 1.7 | 6.1 | 0.00 | 0.00 | 0.00 | 86 | 1009.1 |
| 20260505180837 | 81 | 151 | 1.7 | 6.1 | 0.00 | 0.00 | 0.00 | 86 | 1009.1 |
| 20260505180330 | 81 | 202 | 1.7 | 7.0 | 0.00 | 0.00 | 0.00 | 87 | 1009.2 |
| 20260505175824 | 81 | 199 | 1.7 | 7.0 | 0.00 | 0.00 | 0.00 | 88 | 1009.4 |
| 20260505175318 | 80 | 196 | 1.7 | 7.8 | 0.00 | 0.00 | 0.00 | 88 | 1009.5 |
| 20260505174812 | 80 | 202 | 1.7 | 7.8 | 0.00 | 0.00 | 0.00 | 87 | 1009.4 |
| 20260505174306 | 80 | 218 | 1.7 | 5.2 | 0.00 | 0.00 | 0.00 | 87 | 1009.4 |
| 20260505174031 | 80 | 192 | 1.7 | 6.1 | 0.00 | 0.00 | 0.00 | 89 | 1009.4 |
| 20260505173526 | 80 | 206 | 1.7 | 6.1 | 0.00 | 0.00 | 0.00 | 89 | 1009.5 |
| 20260505172748 | 79 | 181 | 1.7 | 6.1 | 0.00 | 0.00 | 0.00 | 89 | 1009.6 |
| 20260505172242 | 79 | 175 | 1.7 | 7.0 | 0.00 | 0.00 | 0.00 | 89 | 1009.5 |
| 20260505171735 | 79 | 210 | 1.7 | 7.8 | 0.00 | 0.00 | 0.00 | 88 | 1009.5 |
| 20260505171230 | 79 | 208 | 0.9 | 7.8 | 0.00 | 0.00 | 0.00 | 89 | 1009.4 |
| 20260505170724 | 79 | 158 | 0.9 | 7.0 | 0.00 | 0.00 | 0.00 | 89 | 1009.3 |
| 20260505170450 | 79 | 197 | 1.7 | 7.0 | 0.00 | 0.00 | 0.00 | 89 | 1009.5 |
| 20260505165712 | 79 | 173 | 2.6 | 7.0 | 0.00 | 0.00 | 0.00 | 90 | 1009.6 |
| 20260505165209 | 79 | 138 | 1.7 | 7.8 | 0.00 | 0.00 | 0.00 | 90 | 1009.5 |
| 20260505165203 | 78 | 184 | 1.7 | 9.6 | 0.00 | 0.00 | 0.00 | 90 | 1009.5 |
| 20260505164154 | 78 | 190 | 1.7 | 9.6 | 0.00 | 0.00 | 0.00 | 90 | 1009.6 |
| 20260505163648 | 78 | 191 | 1.7 | 9.6 | 0.00 | 0.00 | 0.00 | 90 | 1009.6 |
| 20260505163143 | 79 | 198 | 1.7 | 8.7 | 0.00 | 0.00 | 0.00 | 89 | 1009.5 |
| 20260505162636 | 79 | 163 | 1.7 | 8.7 | 0.00 | 0.00 | 0.00 | 89 | 1009.5 |
| 20260505162130 | 79 | 185 | 1.7 | 7.0 | 0.00 | 0.00 | 0.00 | 90 | 1009.4 |
| 20260505161626 | 79 | 159 | 1.7 | 7.0 | 0.00 | 0.00 | 0.00 | 90 | 1009.4 |
| 20260505161620 | 78 | 175 | 1.7 | 7.0 | 0.00 | 0.00 | 0.00 | 92 | 1009.5 |
| 20260505160845 | 78 | 183 | 1.7 | 8.7 | 0.00 | 0.00 | 0.00 | 91 | 1009.4 |
| 20260505160106 | 78 | 216 | 1.7 | 8.7 | 0.00 | 0.00 | 0.00 | 92 | 1009.3 |
| 20260505153302 | 77 | 160 | 1.7 | 6.1 | 0.00 | 0.00 | 0.00 | 93 | 1009.1 |
| 20260505152524 | 77 | 199 | 1.7 | 6.1 | 0.00 | 0.00 | 0.00 | 94 | 1009.2 |
| 20260505152251 | 76 | 198 | 0.9 | 6.1 | 0.00 | 0.00 | 0.00 | 95 | 1009.3 |
| 20260505151512 | 76 | 166 | 1.7 | 9.6 | 0.00 | 0.00 | 0.00 | 94 | 1009.3 |
| 20260505151006 | 76 | 165 | 1.7 | 9.6 | 0.00 | 0.00 | 0.00 | 94 | 1009.2 |
| 20260505150500 | 76 | 153 | 2.6 | 8.7 | 0.00 | 0.00 | 0.00 | 94 | 1009.2 |
| 20260505140348 | 75 | 176 | 2.6 | 9.6 | 0.00 | 0.00 | 0.00 | 95 | 1008.8 |
| 20260505140114 | 75 | 132 | 2.6 | 9.6 | 0.00 | 0.00 | 0.00 | 95 | 1008.8 |
| 20260505130306 | 73 | 155 | 1.7 | 6.1 | 0.00 | 0.00 | 0.00 | 96 | 1008.8 |
| 20260505125038 | 72 | 146 | 1.7 | 4.3 | 0.00 | 0.00 | 0.00 | 97 | 1009.0 |
| 20260505124536 | 72 | 138 | 1.7 | 4.3 | 0.00 | 0.00 | 0.00 | 97 | 1008.9 |
| 20260505123803 | 72 | 136 | 1.7 | 7.0 | 0.00 | 0.00 | 0.00 | 97 | 1008.7 |
| 20260505123301 | 71 | 141 | 0.9 | 7.0 | 0.00 | 0.00 | 0.00 | 97 | 1008.7 |
| 20260505122759 | 71 | 140 | 0.9 | 6.1 | 0.00 | 0.00 | 0.00 | 97 | 1008.8 |
| 20260505122258 | 71 | 138 | 0.9 | 6.1 | 0.00 | 0.00 | 0.00 | 97 | 1008.7 |
| 20260505121758 | 71 | 155 | 0.9 | 4.3 | 0.00 | 0.00 | 0.00 | 97 | 1008.6 |
| 20260505121259 | 71 | 155 | 0.9 | 4.3 | 0.00 | 0.00 | 0.00 | 97 | 1008.4 |
| 20260505120801 | 71 | 159 | 0.9 | 4.3 | 0.00 | 0.00 | 0.00 | 97 | 1008.6 |
| 20260505120258 | 70 | 140 | 0.9 | 4.3 | 0.00 | 0.00 | 0.00 | 97 | 1008.4 |
| 20260505115759 | 70 | 123 | 1.7 | 5.2 | 0.00 | 0.00 | 0.00 | 97 | 1008.4 |
| 20260505115530 | 70 | 134 | 1.7 | 5.2 | 0.00 | 0.00 | 0.00 | 97 | 1008.4 |
| 20260505114758 | 70 | 132 | 2.6 | 5.2 | 0.00 | 0.00 | 0.00 | 97 | 1008.2 |
| 20260505114529 | 70 | 144 | 1.7 | 4.3 | 0.00 | 0.00 | 0.00 | 97 | 1008.2 |
| 20260505113758 | 70 | 146 | 0.9 | 4.3 | 0.00 | 0.00 | 0.00 | 97 | 1008.3 |
| 20260505113528 | 70 | 146 | 0.9 | 6.1 | 0.00 | 0.00 | 0.00 | 97 | 1008.5 |
| 20260505112758 | 70 | 156 | 0.9 | 6.1 | 0.00 | 0.00 | 0.00 | 97 | 1008.5 |
| 20260505112259 | 70 | 146 | 0.9 | 4.3 | 0.00 | 0.00 | 0.00 | 97 | 1008.4 |
| 20260505111753 | 70 | 155 | 0.0 | 2.6 | 0.00 | 0.00 | 0.00 | 97 | 1008.5 |
| 20260505111525 | 70 | 155 | 0.0 | 2.6 | 0.00 | 0.00 | 0.00 | 97 | 1008.3 |
| 20260505110753 | 70 | 155 | 0.9 | 5.2 | 0.00 | 0.00 | 0.00 | 97 | 1008.2 |
| 20260505110524 | 70 | 156 | 0.9 | 5.2 | 0.00 | 0.00 | 0.00 | 97 | 1008.2 |
| 20260505101750 | 70 | 147 | 0.9 | 6.1 | 0.00 | 0.00 | 0.00 | 96 | 1008.4 |
| 20260505101520 | 70 | 147 | 0.9 | 6.1 | 0.00 | 0.00 | 0.00 | 96 | 1008.3 |
| 20260505100749 | 70 | 149 | 1.7 | 6.1 | 0.00 | 0.00 | 0.00 | 96 | 1008.3 |
| 20260505100251 | 70 | 149 | 0.9 | 6.1 | 0.00 | 0.00 | 0.00 | 96 | 1008.3 |
| 20260505095750 | 70 | 154 | 0.9 | 4.3 | 0.00 | 0.00 | 0.00 | 96 | 1008.4 |
| 20260505095250 | 70 | 146 | 0.9 | 4.3 | 0.00 | 0.00 | 0.00 | 96 | 1008.6 |
| 20260505095021 | 70 | 145 | 0.9 | 4.3 | 0.00 | 0.00 | 0.00 | 96 | 1008.6 |
| 20260505094520 | 70 | 140 | 1.7 | 6.1 | 0.00 | 0.00 | 0.00 | 96 | 1008.6 |
| 20260505093749 | 70 | 148 | 1.7 | 6.1 | 0.00 | 0.00 | 0.00 | 96 | 1008.4 |
| 20260505093249 | 70 | 136 | 0.9 | 5.2 | 0.00 | 0.00 | 0.00 | 96 | 1008.3 |
| 20260505092751 | 70 | 134 | 0.9 | 4.3 | 0.00 | 0.00 | 0.00 | 96 | 1008.5 |
| 20260505092249 | 70 | 147 | 0.9 | 4.3 | 0.00 | 0.00 | 0.00 | 96 | 1008.6 |
| 20260505091750 | 69 | 150 | 0.9 | 5.2 | 0.00 | 0.00 | 0.00 | 96 | 1008.7 |
| 20260505091520 | 69 | 151 | 0.9 | 5.2 | 0.00 | 0.00 | 0.00 | 96 | 1008.7 |
| 20260505090748 | 69 | 147 | 0.0 | 4.3 | 0.00 | 0.00 | 0.00 | 96 | 1008.8 |
| 20260505090243 | 69 | 146 | 0.0 | 1.7 | 0.00 | 0.00 | 0.00 | 96 | 1008.9 |
| 20260505090006 | 69 | 146 | 0.9 | 5.2 | 0.00 | 0.00 | 0.00 | 96 | 1008.9 |
| 20260505085229 | 69 | 146 | 0.9 | 5.2 | 0.00 | 0.00 | 0.00 | 95 | 1008.9 |
| 20260505084731 | 69 | 160 | 0.9 | 3.5 | 0.00 | 0.00 | 0.00 | 95 | 1008.8 |
| 20260505084227 | 69 | 174 | 0.9 | 4.3 | 0.00 | 0.00 | 0.00 | 96 | 1008.8 |
| 20260505083959 | 69 | 145 | 0.9 | 5.2 | 0.00 | 0.00 | 0.00 | 96 | 1009.0 |
| 20260505083227 | 69 | 150 | 0.9 | 5.2 | 0.00 | 0.00 | 0.00 | 95 | 1009.0 |
| 20260505082727 | 69 | 182 | 0.9 | 4.3 | 0.00 | 0.00 | 0.00 | 95 | 1009.0 |
| 20260505082230 | 69 | 155 | 0.0 | 2.6 | 0.00 | 0.00 | 0.00 | 95 | 1009.2 |
| 20260505081728 | 69 | 157 | 0.9 | 4.3 | 0.00 | 0.00 | 0.00 | 95 | 1009.2 |
| 20260505081458 | 69 | 148 | 0.9 | 4.3 | 0.00 | 0.00 | 0.00 | 95 | 1009.2 |
| 20260505080723 | 69 | 144 | 0.9 | 2.6 | 0.00 | 0.00 | 0.00 | 95 | 1009.2 |
| 20260505080221 | 69 | 145 | 0.9 | 3.5 | 0.00 | 0.00 | 0.00 | 95 | 1009.3 |
| 20260505075722 | 69 | 146 | 0.9 | 3.5 | 0.00 | 0.00 | 0.00 | 95 | 1009.2 |
| 20260505075222 | 69 | 148 | 0.9 | 5.2 | 0.00 | 0.00 | 0.00 | 95 | 1009.3 |
| 20260505074720 | 69 | 143 | 0.9 | 5.2 | 0.00 | 0.00 | 0.00 | 95 | 1009.4 |
| 20260505074217 | 69 | 144 | 0.9 | 4.3 | 0.00 | 0.00 | 0.00 | 94 | 1009.3 |
| 20260505073719 | 69 | 144 | 0.9 | 4.3 | 0.00 | 0.00 | 0.00 | 94 | 1009.5 |
| 20260505073448 | 69 | 150 | 1.7 | 7.0 | 0.00 | 0.00 | 0.00 | 94 | 1009.3 |
| 20260505072948 | 69 | 159 | 0.9 | 7.0 | 0.00 | 0.00 | 0.00 | 94 | 1009.3 |
| 20260505072219 | 70 | 142 | 0.9 | 4.3 | 0.00 | 0.00 | 0.00 | 94 | 1009.4 |
| 20260505071713 | 70 | 182 | 0.9 | 7.8 | 0.00 | 0.00 | 0.00 | 94 | 1009.4 |
| 20260505071207 | 70 | 175 | 0.9 | 7.8 | 0.00 | 0.00 | 0.00 | 94 | 1009.4 |
| 20260505070701 | 70 | 157 | 1.7 | 7.0 | 0.00 | 0.00 | 0.00 | 94 | 1009.5 |
| 20260505070155 | 70 | 110 | 0.9 | 7.8 | 0.00 | 0.00 | 0.00 | 93 | 1009.6 |
| 20260505065649 | 70 | 147 | 0.9 | 7.8 | 0.00 | 0.00 | 0.00 | 93 | 1009.7 |
| 20260505065143 | 70 | 152 | 0.9 | 5.2 | 0.00 | 0.00 | 0.00 | 93 | 1009.8 |
| 20260505064907 | 70 | 129 | 0.9 | 6.1 | 0.00 | 0.00 | 0.00 | 93 | 1009.9 |
| 20260505064131 | 70 | 142 | 0.9 | 6.1 | 0.00 | 0.00 | 0.00 | 93 | 1009.8 |
| 20260505063625 | 70 | 155 | 1.7 | 6.1 | 0.00 | 0.00 | 0.00 | 93 | 1009.9 |
| 20260505063119 | 70 | 159 | 1.7 | 7.0 | 0.00 | 0.00 | 0.00 | 93 | 1010.0 |
| 20260505062613 | 70 | 149 | 1.7 | 7.0 | 0.00 | 0.00 | 0.00 | 93 | 1010.0 |
| 20260505062107 | 70 | 146 | 1.7 | 6.1 | 0.00 | 0.00 | 0.00 | 92 | 1010.1 |
| 20260505061601 | 70 | 148 | 1.7 | 5.2 | 0.00 | 0.00 | 0.00 | 92 | 1010.1 |
| 20260505061055 | 70 | 144 | 0.9 | 5.2 | 0.00 | 0.00 | 0.00 | 92 | 1010.1 |
| 20260505060549 | 70 | 164 | 1.7 | 8.7 | 0.00 | 0.00 | 0.00 | 92 | 1010.3 |
| 20260505060043 | 70 | 136 | 1.7 | 8.7 | 0.00 | 0.00 | 0.00 | 92 | 1010.3 |
| 20260505055538 | 70 | 173 | 0.9 | 7.0 | 0.00 | 0.00 | 0.00 | 92 | 1010.2 |
| 20260505055303 | 70 | 142 | 1.7 | 7.8 | 0.00 | 0.00 | 0.00 | 92 | 1010.2 |
| 20260505054525 | 70 | 149 | 1.7 | 7.8 | 0.00 | 0.00 | 0.00 | 92 | 1010.3 |
| 20260505054018 | 70 | 149 | 1.7 | 7.0 | 0.00 | 0.00 | 0.00 | 91 | 1010.2 |
| 20260505053513 | 70 | 144 | 1.7 | 7.0 | 0.00 | 0.00 | 0.00 | 91 | 1010.1 |
| 20260505053007 | 70 | 141 | 1.7 | 6.1 | 0.00 | 0.00 | 0.00 | 91 | 1010.2 |
| 20260505052501 | 70 | 146 | 1.7 | 6.1 | 0.00 | 0.00 | 0.00 | 91 | 1010.4 |
| 20260505051955 | 71 | 142 | 1.7 | 6.1 | 0.00 | 0.00 | 0.00 | 91 | 1010.6 |
| 20260505051449 | 71 | 144 | 0.9 | 5.2 | 0.00 | 0.00 | 0.00 | 91 | 1010.8 |
| 20260505050943 | 71 | 167 | 0.9 | 4.3 | 0.00 | 0.00 | 0.00 | 91 | 1010.7 |
| 20260505050438 | 71 | 171 | 0.9 | 4.3 | 0.00 | 0.00 | 0.00 | 90 | 1010.6 |
| 20260505041431 | 71 | 145 | 1.7 | 7.8 | 0.00 | 0.00 | 0.00 | 89 | 1010.7 |
| 20260505040932 | 71 | 150 | 1.7 | 7.8 | 0.00 | 0.00 | 0.00 | 89 | 1010.6 |
| 20260505040430 | 71 | 145 | 1.7 | 7.8 | 0.00 | 0.00 | 0.00 | 88 | 1010.7 |
| 20260505035930 | 71 | 147 | 1.7 | 7.8 | 0.00 | 0.00 | 0.00 | 88 | 1010.9 |
| 20260505035429 | 71 | 151 | 1.7 | 7.0 | 0.00 | 0.00 | 0.00 | 88 | 1010.9 |
| 20260505035159 | 72 | 133 | 1.7 | 7.0 | 0.00 | 0.00 | 0.00 | 88 | 1010.8 |
| 20260505034428 | 72 | 142 | 1.7 | 7.0 | 0.00 | 0.00 | 0.00 | 88 | 1010.8 |